TimeEEST,TemperatureF,Dew PointF,Humidity,Sea Level PressureIn,VisibilityMPH,Wind Direction,Wind SpeedMPH,Gust SpeedMPH,PrecipitationIn,Events,Conditions,WindDirDegrees,DateUTC
12:50 AM,62.6,48.2,59,29.95,-9999.0,North,4.6,-,N/A,,Clear,350,2013-05-27 21:50:00
1:50 AM,62.6,46.4,55,29.95,-9999.0,Calm,Calm,-,N/A,,Clear,0,2013-05-27 22:50:00
2:50 AM,60.8,46.4,59,29.95,-9999.0,North,4.6,-,N/A,,Clear,350,2013-05-27 23:50:00
3:50 AM,59.0,44.6,59,29.95,-9999.0,Calm,Calm,-,N/A,,Clear,0,2013-05-28 00:50:00
4:50 AM,57.2,44.6,63,29.95,-9999.0,Calm,Calm,-,N/A,,Clear,0,2013-05-28 01:50:00
5:50 AM,55.4,42.8,63,29.95,-9999.0,Calm,Calm,-,N/A,,Clear,0,2013-05-28 02:50:00
6:20 AM,57.2,42.8,59,29.95,-9999.0,Calm,Calm,-,N/A,,Clear,0,2013-05-28 03:20:00
6:50 AM,59.0,41.0,51,29.95,-9999.0,Calm,Calm,-,N/A,,Clear,0,2013-05-28 03:50:00
7:20 AM,64.4,41.0,42,29.95,-9999.0,Calm,Calm,-,N/A,,Clear,0,2013-05-28 04:20:00
7:50 AM,64.4,39.2,40,29.95,-9999.0,Calm,Calm,-,N/A,,Clear,0,2013-05-28 04:50:00
8:20 AM,68.0,37.4,33,29.95,-9999.0,Calm,Calm,-,N/A,,Clear,0,2013-05-28 05:20:00
8:50 AM,71.6,35.6,27,29.95,-9999.0,Calm,Calm,-,N/A,,Clear,0,2013-05-28 05:50:00
9:20 AM,73.4,37.4,27,29.95,-9999.0,Calm,Calm,-,N/A,,Clear,0,2013-05-28 06:20:00
9:50 AM,75.2,39.2,27,29.95,-9999.0,Calm,Calm,-,N/A,,Clear,0,2013-05-28 06:50:00
10:20 AM,75.2,39.2,27,29.95,-9999.0,Calm,Calm,-,N/A,,Clear,0,2013-05-28 07:20:00
10:50 AM,77.0,41.0,28,29.95,-9999.0,SW,8.1,-,N/A,,Clear,220,2013-05-28 07:50:00
11:20 AM,78.8,44.6,30,29.95,-9999.0,South,5.8,-,N/A,,Clear,190,2013-05-28 08:20:00
11:50 AM,77.0,46.4,34,29.95,-9999.0,South,9.2,-,N/A,,Clear,190,2013-05-28 08:50:00
12:20 PM,77.0,48.2,36,29.95,-9999.0,SSW,6.9,-,N/A,,Clear,200,2013-05-28 09:20:00
12:50 PM,77.0,50.0,39,29.95,-9999.0,SSW,9.2,-,N/A,,Clear,200,2013-05-28 09:50:00
1:20 PM,77.0,50.0,39,29.92,-9999.0,SSW,8.1,-,N/A,,Clear,210,2013-05-28 10:20:00
1:50 PM,77.0,41.0,28,29.92,-9999.0,SSW,8.1,-,N/A,,Clear,200,2013-05-28 10:50:00
2:20 PM,77.0,41.0,28,29.92,-9999.0,SSW,8.1,-,N/A,,Clear,200,2013-05-28 11:20:00
2:50 PM,78.8,48.2,34,29.92,-9999.0,SSW,4.6,-,N/A,,Clear,200,2013-05-28 11:50:00
3:20 PM,77.0,50.0,39,29.92,-9999.0,South,6.9,-,N/A,,Clear,190,2013-05-28 12:20:00
3:50 PM,77.0,44.6,32,29.89,-9999.0,South,8.1,-,N/A,,Clear,170,2013-05-28 12:50:00
4:20 PM,75.2,46.4,36,29.89,-9999.0,SSW,12.7,-,N/A,,Clear,200,2013-05-28 13:20:00
4:50 PM,75.2,50.0,41,29.86,-9999.0,South,10.4,-,N/A,,Clear,180,2013-05-28 13:50:00
5:20 PM,73.4,51.8,47,29.86,-9999.0,SSW,8.1,-,N/A,,Clear,200,2013-05-28 14:20:00
5:50 PM,73.4,53.6,50,29.86,6.2,South,8.1,-,N/A,,Scattered Clouds,190,2013-05-28 14:50:00
6:20 PM,69.8,59.0,68,29.86,6.2,SSW,9.2,-,N/A,,Mostly Cloudy,210,2013-05-28 15:20:00
6:50 PM,71.6,59.0,64,29.83,6.2,Calm,Calm,-,N/A,,Mostly Cloudy,0,2013-05-28 15:50:00
7:20 PM,69.8,59.0,68,29.83,6.2,SSW,4.6,-,N/A,,Mostly Cloudy,200,2013-05-28 16:20:00
7:50 PM,69.8,59.0,68,29.83,6.2,Calm,Calm,-,N/A,,Mostly Cloudy,0,2013-05-28 16:50:00
8:20 PM,69.8,59.0,68,29.83,6.2,Calm,Calm,-,N/A,,Partly Cloudy,0,2013-05-28 17:20:00
8:50 PM,69.8,59.0,68,29.83,6.2,South,5.8,-,N/A,,Scattered Clouds,190,2013-05-28 17:50:00
9:20 PM,69.8,59.0,68,29.83,6.2,Calm,Calm,-,N/A,,Scattered Clouds,0,2013-05-28 18:20:00
9:50 PM,69.8,59.0,68,29.80,6.2,Calm,Calm,-,N/A,,Scattered Clouds,0,2013-05-28 18:50:00
10:20 PM,69.8,55.4,60,29.80,6.2,Calm,Calm,-,N/A,,Scattered Clouds,0,2013-05-28 19:20:00
10:50 PM,71.6,53.6,53,29.80,6.2,WNW,4.6,-,N/A,,Scattered Clouds,300,2013-05-28 19:50:00
11:20 PM,71.6,51.8,50,29.80,6.2,Calm,Calm,-,N/A,,Scattered Clouds,0,2013-05-28 20:20:00
11:50 PM,69.8,51.8,53,29.77,6.2,Calm,Calm,-,N/A,,Scattered Clouds,0,2013-05-28 20:50:00